This is the latest recevied weather packets stored in our database for station/object KC9GSD. If no packets are shown the sender has not sent any weather packets the latest 10 day(s).
| Time | Temp. | Humidity | Pressure | Rain* | Wind** | Luminosity | Snow |
|---|---|---|---|---|---|---|---|
| 1778265756 | 20.56° C | 53% | 1014.7 hPa | 0 mm | - | 355 W/m² | - |
| 1778265452 | 20.56° C | 52% | 1014.8 hPa | 0 mm | - | 393 W/m² | - |
| 1778265148 | 20.56° C | 47% | 1014.9 hPa | 0 mm | - | 423 W/m² | - |
| 1778264844 | 20° C | 59% | 1014.9 hPa | 0 mm | - | 452 W/m² | - |
| 1778264541 | 20° C | 49% | 1015.1 hPa | 0 mm | - | 378 W/m² | - |
| 1778264238 | 20.56° C | 53% | 1015.1 hPa | 0 mm | - | 494 W/m² | - |
| 1778263935 | 20.56° C | 51% | 1015.2 hPa | 0 mm | - | 437 W/m² | - |
| 1778263631 | 20.56° C | 55% | 1015.6 hPa | 0 mm | - | 472 W/m² | - |
| 1778263328 | 20° C | 43% | 1015.7 hPa | 0 mm | - | 414 W/m² | - |
| 1778263025 | 20° C | 44% | 1015.7 hPa | 0 mm | - | 463 W/m² | - |
| 1778262721 | 20° C | 47% | 1015.6 hPa | 0 mm | - | 408 W/m² | - |
| 1778262420 | 20° C | 47% | 1015.8 hPa | 0 mm | - | 354 W/m² | - |
| 1778262115 | 20.56° C | 50% | 1015.9 hPa | 0 mm | - | 536 W/m² | - |
| 1778261813 | 20.56° C | 51% | 1015.6 hPa | 0 mm | - | 393 W/m² | - |
| 1778261508 | 20° C | 48% | 1015.6 hPa | 0 mm | - | 667 W/m² | - |
| 1778261206 | 19.44° C | 47% | 1016 hPa | 0 mm | - | 781 W/m² | - |
| 1778260903 | 20° C | 47% | 1016 hPa | 0 mm | - | 680 W/m² | - |
| 1778260599 | 20° C | 51% | 1016.1 hPa | 0 mm | - | 669 W/m² | - |
| 1778260295 | 20.56° C | 46% | 1016.1 hPa | 0 mm | - | 730 W/m² | - |
| 1778259993 | 20° C | 56% | 1016.1 hPa | 0 mm | - | 824 W/m² | - |
| 1778259691 | 20° C | 53% | 1016.3 hPa | 0 mm | - | 714 W/m² | - |
| 1778259387 | 19.44° C | 55% | 1016.4 hPa | 0 mm | - | 824 W/m² | - |
| 1778259084 | 20° C | 48% | 1016.7 hPa | 0 mm | - | 738 W/m² | - |
| 1778258780 | 19.44° C | 48% | 1016.7 hPa | 0 mm | - | 713 W/m² | - |
| 1778258477 | 20° C | 54% | 1016.5 hPa | 0 mm | - | 760 W/m² | - |
* Rain latest hour (hover to see other rain measurements)
** Current wind speed in m/s (hover to see current wind gust speed)